Location: Jackson Park
(37.2862°N, 79.9123°W)
Time: 23:42:39
(UTC+00:00)

ISS - Pass Details

Date: 25 April 2026
Orbit: 414 x 424 km, 51.6° (Epoch: 15 May)

Event Time Altitude Azimuth Distance (km) Brightness Sun altitude
Exits shadow 07:24:34 12° 41° (NE) 1,378 -0.3 -31.3°
Drops below altitude 10° 07:24:52 10° 42° (NE) 1,497 -0.1 -31.3°
Sets 07:27:00 0° 47° (NE) 2,366 1.2 -31.0°
